Sparta, TN

8:02 AM CST on January 16, 2017 (GMT -0600)
Upper Cumberland Regional

Weather History for KSRB - December, 2012

Change the Weather History Date:

Wednesday, December 5, 2012

  Actual Average (KCSV) Record (KCSV)
Temperature  
Mean Temperature 50 °F -  
Max Temperature 60 °F 50 °F 69 °F (2013)
Min Temperature 37 °F 30 °F 16 °F (1991)
Degree Days  
Heating Degree Days 16    
Moisture  
Dew Point 41 °F    
Average Humidity 68    
Maximum Humidity 100    
Minimum Humidity 36    
Precipitation  
Precipitation 0.00 in - - ()
Sea Level Pressure  
Sea Level Pressure 30.23 in    
Wind  
Wind Speed 6 mph (NE)    
Max Wind Speed 13 mph    
Max Gust Speed -    
Visibility 10 miles    
Events      
Averages and records for this station are not official NWS values.
T = Trace of Precipitation, MM = Missing Value Source: NWS Daily Summary

Daily Weather History Graph

Daily Weather History Graph

Search for Another Location

Airport or City:

Trip Planner

Search our weather history database for the weather conditions in past years. The results will help you decide how hot, cold, wet, or windy it might be!

Date:

Astronomy

Dec. 05, 2012 Rise Set
Actual Time 6:38 AM CST 4:27 PM CST
Civil Twilight 6:09 AM CST 4:55 PM CST
Nautical Twilight 5:38 AM CST 5:27 PM CST
Astronomical Twilight 5:07 AM CST 5:58 PM CST
Moon 11:07 PM CST (12/5) 11:09 AM CST (12/5)
Length of Visible Light 10h 45m
Length of Day
9h 49m
Waning Gibbous, 59% of the Moon is Illuminated
Dec 5
Waning Gibbous
Dec 6
Last Quarter
Dec 13
New
Dec 19
First Quarter
Dec 28
Full

Hourly Weather History & Observations

Time (CST) Temp. Windchill Dew Point Humidity Pressure Visibility Wind Dir Wind Speed Gust Speed Precip Events Conditions
12:15 AM 57.2 °F - 57.2 °F 100% 30.19 in 9.0 mi North 3.5 mph - N/A   Overcast
12:35 AM 57.2 °F - 57.2 °F 100% 30.19 in 9.0 mi Variable 5.8 mph - N/A   Overcast
12:55 AM 55.4 °F - 55.4 °F 100% 30.19 in 10.0 mi NNE 4.6 mph - N/A   Overcast
1:15 AM 53.6 °F - 53.6 °F 100% 30.20 in 10.0 mi NNE 9.2 mph - N/A   Overcast
1:35 AM 53.6 °F - 53.6 °F 100% 30.21 in 10.0 mi North 5.8 mph - N/A   Overcast
1:55 AM 53.6 °F - 51.8 °F 94% 30.21 in 10.0 mi NNE 5.8 mph - N/A   Overcast
2:15 AM 51.8 °F - 51.8 °F 100% 30.22 in 10.0 mi NNE 5.8 mph - N/A   Overcast
2:35 AM 51.8 °F - 51.8 °F 100% 30.22 in 10.0 mi NNE 5.8 mph - N/A   Overcast
2:55 AM 51.8 °F - 51.8 °F 100% 30.21 in 10.0 mi NNE 6.9 mph - N/A   Overcast
3:15 AM 50.0 °F - 48.2 °F 94% 30.22 in 10.0 mi NNE 9.2 mph - N/A   Overcast
3:35 AM 50.0 °F - 48.2 °F 94% 30.22 in 10.0 mi NNE 6.9 mph - N/A   Overcast
3:55 AM 48.2 °F - 46.4 °F 93% 30.22 in 10.0 mi NE 5.8 mph - N/A   Overcast
4:15 AM 48.2 °F - 46.4 °F 93% 30.23 in 10.0 mi NE 6.9 mph - N/A   Overcast
4:35 AM 48.2 °F - 44.6 °F 87% 30.23 in 10.0 mi NE 8.1 mph - N/A   Overcast
4:55 AM 48.2 °F - 44.6 °F 87% 30.24 in 10.0 mi NNE 5.8 mph - N/A   Overcast
5:15 AM 48.2 °F - 44.6 °F 87% 30.25 in 10.0 mi NE 6.9 mph - N/A   Overcast
5:35 AM 48.2 °F - 42.8 °F 82% 30.26 in 10.0 mi NNE 3.5 mph - N/A   Overcast
5:55 AM 48.2 °F - 42.8 °F 82% 30.26 in 10.0 mi NNE 4.6 mph - N/A   Overcast
6:15 AM 48.2 °F - 42.8 °F 82% 30.27 in 10.0 mi NNE 5.8 mph - N/A   Overcast
6:35 AM 48.2 °F - 42.8 °F 82% 30.27 in 10.0 mi NNE 4.6 mph - N/A   Overcast
6:55 AM 46.4 °F 44.3 °F 42.8 °F 87% 30.27 in 10.0 mi NNE 4.6 mph - N/A   Overcast
8:35 AM 48.2 °F - 42.8 °F 82% 30.29 in 10.0 mi NNE 4.6 mph - N/A   Mostly Cloudy
8:55 AM 50.0 °F - 41.0 °F 71% 30.30 in 10.0 mi NE 4.6 mph - N/A   Overcast
9:15 AM 51.8 °F - 41.0 °F 67% 30.30 in 10.0 mi NE 5.8 mph - N/A   Mostly Cloudy
9:35 AM 53.6 °F - 39.2 °F 58% 30.30 in 10.0 mi ENE 10.4 mph - N/A   Clear
9:55 AM 53.6 °F - 37.4 °F 54% 30.30 in 10.0 mi NE 8.1 mph - N/A   Clear
10:15 AM 55.4 °F - 37.4 °F 51% 30.30 in 10.0 mi NNE 9.2 mph - N/A   Clear
10:35 AM 55.4 °F - 37.4 °F 51% 30.29 in 10.0 mi ENE 10.4 mph - N/A   Clear
10:55 AM 57.2 °F - 35.6 °F 44% 30.29 in 10.0 mi East 12.7 mph - N/A   Clear
11:15 AM 57.2 °F - 37.4 °F 48% 30.27 in 10.0 mi ENE 5.8 mph - N/A   Clear
11:35 AM 57.2 °F - 37.4 °F 48% 30.26 in 10.0 mi Variable 4.6 mph - N/A   Clear
11:55 AM 59.0 °F - 35.6 °F 42% 30.25 in 10.0 mi Variable 5.8 mph - N/A   Clear
12:15 PM 60.8 °F - 35.6 °F 39% 30.24 in 10.0 mi East 5.8 mph - N/A   Clear
12:35 PM 60.8 °F - 33.8 °F 36% 30.23 in 10.0 mi ENE 10.4 mph - N/A   Clear
12:55 PM 60.8 °F - 33.8 °F 36% 30.22 in 10.0 mi NNE 9.2 mph - N/A   Clear
1:15 PM 60.8 °F - 35.6 °F 39% 30.22 in 10.0 mi NE 5.8 mph - N/A   Clear
1:35 PM 60.8 °F - 37.4 °F 42% 30.21 in 10.0 mi Variable 5.8 mph - N/A   Clear
1:55 PM 60.8 °F - 37.4 °F 42% 30.20 in 10.0 mi Variable 6.9 mph - N/A   Clear
2:15 PM 60.8 °F - 37.4 °F 42% 30.20 in 10.0 mi NE 5.8 mph - N/A   Clear
2:35 PM 60.8 °F - 35.6 °F 39% 30.21 in 10.0 mi NNE 6.9 mph - N/A   Clear
2:55 PM 59.0 °F - 37.4 °F 45% 30.21 in 10.0 mi North 6.9 mph - N/A   Clear
3:15 PM 57.2 °F - 35.6 °F 44% 30.21 in 10.0 mi NE 6.9 mph - N/A   Clear
3:35 PM 57.2 °F - 35.6 °F 44% 30.21 in 10.0 mi NNE 6.9 mph - N/A   Clear
3:55 PM 57.2 °F - 35.6 °F 44% 30.21 in 10.0 mi NNE 5.8 mph - N/A   Clear
4:15 PM 55.4 °F - 35.6 °F 47% 30.21 in 10.0 mi NNE 5.8 mph - N/A   Clear
4:35 PM 53.6 °F - 35.6 °F 51% 30.21 in 10.0 mi NE 3.5 mph - N/A   Clear
4:55 PM 51.8 °F - 35.6 °F 54% 30.21 in 10.0 mi NE 4.6 mph - N/A   Clear
5:15 PM 50.0 °F - 35.6 °F 58% 30.21 in 10.0 mi NNE 5.8 mph - N/A   Clear
5:35 PM 48.2 °F - 35.6 °F 62% 30.21 in 10.0 mi NE 4.6 mph - N/A   Clear
5:55 PM 48.2 °F - 33.8 °F 58% 30.21 in 10.0 mi NNE 3.5 mph - N/A   Clear
6:15 PM 46.4 °F - 35.6 °F 66% 30.21 in 10.0 mi Calm Calm - N/A   Clear
6:35 PM 42.8 °F 41.1 °F 33.8 °F 70% 30.20 in 10.0 mi NE 3.5 mph - N/A   Clear
6:55 PM 44.6 °F 42.2 °F 33.8 °F 66% 30.20 in 10.0 mi NE 4.6 mph - N/A   Clear
7:15 PM 42.8 °F 40.1 °F 33.8 °F 70% 30.20 in 10.0 mi ENE 4.6 mph - N/A   Clear
7:35 PM 39.2 °F 37.0 °F 33.8 °F 81% 30.19 in 10.0 mi ENE 3.5 mph - N/A   Clear
7:55 PM 37.4 °F - 33.8 °F 87% 30.19 in 10.0 mi Calm Calm - N/A   Clear